www.pogodaiklimat.ru

Погода и климат >> Архив погоды >> Соломоновы Острова >> Хониара


ПОГОДА в Хониаре

  • Прогноз погоды в Хониаре
  • Монитор погоды в Хониаре

АРХИВ ПОГОДЫ в Хониаре

Время (UTC), дата Ветер
(напр.,м/с)
 
Видим.   Явления Облачность Т
(С)
Тd
(С)
f
(%)
Тe
(С)
Тes
(С)
Комфортность P
(гПа)
Po
(гПа)
Тmin
(С)
Tmax
(С)
R
(мм)
R24
(мм)
S
(см)
18 17.08 Ю 2 20 км мгла 9/9 450 м
[Cu Sc]
+24.5 +23.8 96 +33 +33 очень
душно
1010.4 1004.0
21 17.08 Ю 3 20 км мгла 9/4 500 м
[Cu Sc Ac trans]
+25.0 +24.3 96 +35 +35 очень
душно
1010.7 1004.3
00 18.08 СВ 2 20 км мгла 9/3 600 м
[Cu med, cong Ac trans Cs]
+29.4 +23.6 71 +40 +47 очень
душно
1011.8 1005.5 +24.5
03 18.08 С 2 20 км осадки на расстоянии 8/4 600 м
[Cb cap Ac trans Cs]
+32.0 +24.9 66 +45 +52 опасность
перегрева
1009.3 1003.1
06 18.08 СВ 3 20 км гроза без осадков 8/5 570 м
[Cb cap Ac trans Cs]
+30.0 +25.0 75 +43 +44 опасность
перегрева
1008.4 1002.2
09 18.08 ЮВ 2 20 км осадки на расстоянии {гроза} 5/3 480 м
[Cu Sc Ac trans Cs]
+25.7 +23.2 86 +34 +34 очень
душно
1011.2 1004.9
12 18.08 Ю 2 20 км осадки на расстоянии 10/4 450 м
[Cb cap Ac As]
+25.6 +23.2 87 +34 +34 очень
душно
1011.8 1005.5 +33.0
18 18.08 Ю 3 20 км мгла 4/1 450 м
[Cu Sc Cs]
+24.3 +22.1 88 +32 +32 очень
душно
1009.6 1003.2
21 18.08 Ю 3 20 км осадки на расстоянии 9/9 480 м
[Cb cap]
+25.0 +21.1 79 +32 +32 очень
душно
1011.1 1004.7
00 19.08 штиль 0 20 км осадки на расстоянии 9/4 500 м
[Cb cap Cs]
+27.5 +23.1 77 +37 +48 очень
душно
1011.3 1005.0 +24.0
03 19.08 Ю 2 20 км мгла 9/4 540 м
[Cu Sc Cs]
+27.0 +23.4 81 +37 +39 очень
душно
1009.6 1003.3
06 19.08 штиль 0 20 км мгла 9/1 540 м
[Cu med, cong Cs]
+28.4 +23.6 75 +39 +41 очень
душно
1008.1 1001.8
09 19.08 Ю 2 20 км мгла 6/4 480 м
[Cu Sc Cs]
+25.2 +22.9 87 +33 +33 очень
душно
1009.3 1003.0
12 19.08 Ю 3 20 км мгла 8/1 450 м
[Cu med, cong Ac trans Cs]
+25.0 +22.8 88 +33 +33 очень
душно
1010.4 1004.1 +29.5
15 19.08 Ю 2 20 км мгла 5/1 450 м
[Cu med, cong Cs]
+24.0 +21.7 87 +31 +31 очень
душно
1009.3 1002.9
18 19.08 Ю 2 20 км мгла 9/3 450 м
[Cu Sc Ac trans Cs]
+23.0 +22.3 96 +31 +31 очень
душно
1008.8 1002.4
21 19.08 Ю 3 20 км осадки на расстоянии 9/5 480 м
[Cu Sc Ac As]
+25.0 +22.0 83 +32 +33 очень
душно
1010.7 1004.3
00 20.08 С 2 20 км мгла 9/4 570 м
[Cu Sc Cs]
+30.6 +23.9 67 +42 +51 опасность
перегрева
1010.9 1004.7 +23.5
03 20.08 СВ 4 20 км осадки на расстоянии 9/5 540 м
[Cb cap Ac As Cs]
+30.0 +24.0 70 +41 +43 опасность
перегрева
1008.9 1002.7
06 20.08 В 3 20 км осадки на расстоянии 9/3 500 м
[Cb cap Ac trans Cs]
+28.0 +24.3 80 +39 +40 очень
душно
1009.3 1003.0
09 20.08 Ю 2 20 км осадки на расстоянии {морось} 10/6 480 м
[Cb cap Ac As]
+25.0 +23.5 91 +34 +34 очень
душно
1010.5 1004.1 0.0
12 20.08 Ю 3 20 км мгла 9/3 450 м
[Cu Sc Ac trans Cs]
+23.5 +22.8 96 +31 +31 очень
душно
1010.7 1004.3 +33.0 0.6
15 20.08 Ю 3 20 км осадки на расстоянии 9/3 420 м
[Cu Sc Ac As]
+23.4 +22.2 93 +32 +32 очень
душно
1009.8 1003.4
18 20.08 Ю 4 20 км осадки на расстоянии 10/4 420 м
[Cu Sc Ac As Cs]
+24.0 +21.9 88 +31 +31 очень
душно
1008.9 1002.5
21 20.08 ЮВ 2 20 км осадки на расстоянии 9/6 450 м
[Cb cap Ac As Cs]
+24.5 +22.3 88 +32 +33 очень
душно
1010.6 1004.2
00 21.08 Ю 2 20 км осадки на расстоянии 9/5 500 м
[Cu Sc Ac As]
+28.5 +23.4 74 +39 +43 очень
душно
1010.9 1004.6 +23.4 0.6
03 21.08 С 2 20 км мгла 9/4 540 м
[Cu Sc Ac As Cs]
+30.0 +24.3 72 +42 +45 опасность
перегрева
1008.2 1002.0
06 21.08 СВ 2 20 км осадки на расстоянии 9/5 500 м
[Cu Sc Ac As]
+29.5 +23.7 71 +40 +41 очень
душно
1007.8 1001.6
09 21.08 Ю 2 20 км слаб. морось 8/3 450 м
[Cu Sc Ac As Cs]
+26.0 +24.6 92 +37 +37 очень
душно
1010.0 1003.7 0.0
12 21.08 Ю 2 20 км осадки на расстоянии {морось} 10/4 450 м
[Cu Sc Ac As Cs]
+25.5 +23.3 88 +34 +34 очень
душно
1010.9 1004.6 +30.8 0.0
15 21.08 Ю 3 20 км мгла 9/4 450 м
[Cu Sc Ac As]
+25.0 +22.9 88 +33 +33 очень
душно
1009.5 1003.2
18 21.08 Ю 4 20 км осадки на расстоянии 10/4 450 м
[Cu Sc Ac As]
+25.0 +22.8 88 +33 +33 очень
душно
1009.2 1002.9
21 21.08 Ю 2 20 км осадки на расстоянии 10/3 450 м
[Cu Sc Ac As Cs]
+25.4 +22.2 82 +33 +33 очень
душно
1011.0 1004.7
00 22.08 Ю 1 20 км мгла 10/1 540 м
[Cu med, cong Ac As Cs]
+28.1 +23.5 76 +38 +47 очень
душно
1010.7 1004.4 +25.0 0.0
03 22.08 СВ 3 20 км мгла 8/3 570 м
[Cu med, cong Ac trans Cs]
+30.7 +24.3 69 +43 +46 опасность
перегрева
1007.9 1001.7
06 22.08 СВ 4 20 км мгла 9/3 540 м
[Cu Sc Ac As]
+29.5 +24.5 75 +42 +42 опасность
перегрева
1007.5 1001.3
09 22.08 штиль 0 20 км мгла 9/3 480 м
[Cu Sc Ac As]
+27.5 +23.9 81 +38 +38 очень
душно
1009.8 1003.5
12 22.08 Ю 2 20 км осадки на расстоянии 10/3 480 м
[Cu Sc Ac As]
+26.0 +24.6 92 +37 +37 очень
душно
1011.3 1005.0 +32.0
15 22.08 Ю 2 20 км слаб. морось 10/6 450 м
[Cb cap Ac As]
+25.5 +24.1 92 +35 +35 очень
душно
1010.2 1003.9 0.2
18 22.08 Ю 2 20 км мгла 9/5 450 м
[Cu Sc Ac As]
+24.9 +24.3 96 +34 +34 очень
душно
1010.0 1003.7 0.1
21 22.08 Ю 1 20 км осадки на расстоянии 10/6 480 м
[Cb cap Ac As]
+25.2 +23.5 90 +34 +34 очень
душно
1012.3 1005.9
03 23.08 С 1 20 км мгла 9/3 570 м
[Cu Sc Ac As Cs]
+29.0 +23.2 71 +39 +47 очень
душно
1010.3 1004.0
06 23.08 С 1 20 км осадки на расстоянии 9/3 540 м
[Cu Sc Ac As Cs]
+28.0 +24.4 81 +39 +40 очень
душно
1010.2 1003.9
09 23.08 Ю 1 20 км мгла 8/3 500 м
[Cu med, cong Ac As Cs]
+26.0 +24.6 92 +37 +37 очень
душно
1012.2 1005.9
12 23.08 ЮВ 2 20 км мгла 9/3 480 м
[Cu Sc Ac As Cs]
+25.5 +24.1 92 +35 +35 очень
душно
1012.7 1006.3 +29.5
15 23.08 Ю 1 20 км мгла 9/3 450 м
[Cu Sc Ac As Cs]
+25.0 +23.5 91 +34 +34 очень
душно
1011.0 1004.6
18 23.08 Ю 2 20 км мгла 8/1 450 м
[Cu Sc Ac As Cs]
+24.5 +22.5 89 +32 +32 очень
душно
1010.5 1004.1
21 23.08 Ю 2 20 км мгла 3/1 500 м
[Cu med, cong Cs]
+26.5 +23.6 84 +36 +39 очень
душно
1012.0 1005.7
00 24.08 СВ 4 20 км осадки на расстоянии 8/6 570 м
[Cb cap Ac trans Cs]
+30.6 +23.6 66 +41 +45 опасность
перегрева
1011.8 1005.6 +24.2
03 24.08 СВ 4 20 км осадки на расстоянии {морось} 8/3 570 м
[Cb cap Ac trans Cs]
+30.8 +24.0 67 +42 +47 опасность
перегрева
1009.6 1003.4 0.2
06 24.08 СВ 2 20 км мгла 6/3 540 м
[Cb cap Ac trans Cs]
+31.0 +23.0 62 +41 +42 опасность
перегрева
1009.3 1003.1
12 24.08 Ю 2 20 км мгла 5/3 450 м
[Cu Sc Ac trans Cs]
+25.5 +23.6 89 +35 +35 очень
душно
1012.2 1005.8 +32.0

 

Местоположение метеостанции Хониара (Соломоновы Острова): широта -9.42 долгота 159.97 высота над уровнем моря 55 м.

В архиве по умолчанию представлена погода в Хониаре за последнюю неделю. Архивные данные за месяц целиком и за предыдущие месяцы, начиная с января 2011 года, Вы можете получить, выбрав интересующий диапазон дат из раскрывающегося списка и нажав кнопку "Ввод!".


*Определитесь, кто Вы:
робот инопланетянин человек

Внимание! Время в таблицах - всемирное. Для получения местного времени необходимо прибавить поправку, которая равна 11 ч.

Смотрите также архив погоды в соседних городах и на ближайших метеорологических станциях:

Погода в Хониара аэропорту (Соломоновы Острова) (9 км)
Погода в Ауки (Соломоновы Острова) (110 км)
Погода в Манде (Соломоновы Острова) (322 км)
Погода на Острове Таро (Соломоновы Острова) (495 км)
Погода на Островах Санта-Круз (Соломоновы Острова) (653 км)
Погода на Мисиме (Папуа Новая Гвинея) (794 км)
Погода на Линуа (Вануату) (845 км)
Погода в Соле (Вануату) (961 км)
Погода в Токуа (Папуа Новая Гвинея) (1013 км)
Погода в Санто-Пекоа (Вануату) (1037 км)

Пояснения к столбцам:

Ветер - указаны скорость ветра в м/с - средняя за 10 мин, порывы в срок и между сроками (в фигурных скобках) и направление, откуда дует ветер: С - северный, СВ - северо-восточный, В - восточный, ЮВ - юго-восточный, Ю - южный, ЮЗ - юго-западный, З - западный, СЗ - северо-западный.
Видимость - горизонтальная дальность видимости в метрах или километрах. При видимости от 1 до 10 км при отсутствии осадков обычно наблюдается дымка, при ухудшении видимости до 1 км и менее - туман. В сухую погоду видимость может ухудшаться дымом, пылью или мглою.
Явления - указаны атмосферные явления, наблюдавшиеся в срок или в последний час перед сроком; фигурными скобками обозначены явления, наблюдавшиеся между сроками (за 1-3 часа до срока); квадратными скобками обозначены град или гололедные отложения с указанием их диаметра в мм.
Облачность - указаны через наклонную черту общая и нижняя облачность в баллах и высота нижней границы облаков в метрах; квадратными скобками обозначены формы облаков: Ci - перистые, Cs - перисто-слоистые, Cc - перисто-кучевые, Ac - высококучевые, As - высокослоистые, Sc - слоисто-кучевые, Ns - слоисто-дождевые, Cu - кучевые, Cb - кучево-дождевые. Подробнее классификацию облаков см. в Атласе облаков (PDF).
T - Температура воздуха - температура, измеренная на высоте 2 м над землей.
Td - Температура точки росы - температура, при понижении до которой содержащийся в воздухе водяной пар достигнет насыщения.
f - Относительная влажность воздуха - влажноcть воздуха, измеренная на высоте 2 м над землей.
Te - Эффективная температура - температура, которую ощущает одетый по сезону человек в тени. Характеристика душности погоды. При расчете учитывается влияние влажности воздуха и скорости ветра на теплоощущения человека.
Tes - Эффективная температура на солнце - температура, которую ощущает человек, с поправкой на солнечный нагрев. Характеристика знойности погоды. Зависит от высоты солнца над горизонтом, облачности и скорости ветра. Ночью, в пасмурную погоду, а также при ветре 12 м/с и более поправка равна нулю.
P - Атмосферное давление - приведенное к уровню моря атмосферное давление.
Po - Атмосферное давление - измеренное на уровне метеостанции атмосферное давление.
Tmin - Минимальная температура - минимум температуры воздуха на высоте 2 м над землей.
Tmax - Максимальная температура - максимум температуры воздуха на высоте 2 м над землей.
R - Количество осадков - Количество выпавших осадков за период времени, мм. При наведении курсора мыши на число - период времени, за который выпало указанное количество осадков.
R24 - Количество осадков - Количество выпавших осадков за 24 часа, мм.
S - Снежный покров - Высота снежного покрова, см. При наведении курсора мыши на число - состояние снежного покрова и степень покрытия местности в баллах.